Terminal Aerodrome Forecast
Issued by NWS

Home | Current Version | Previous Version | Text Only | Print | Product List | Glossary On
Versions: 1 2 3 4 5 6 7 8 9 10 11 12 13 14 15 16 17 18 19 20
000
FTUS44 KSJT 232300
TAFBBD
TAF
KBBD 232326Z 2400/2424 33013KT P6SM FEW200
     FM240700 32007KT P6SM SKC
     FM242000 24005KT P6SM SKC=

USA.gov is the U.S. government's official web portal to all federal, state and local government web resources and services.